TimeEDT,TemperatureF,Dew PointF,Humidity,Sea Level PressureIn,VisibilityMPH,Wind Direction,Wind SpeedMPH,Gust SpeedMPH,PrecipitationIn,Events,Conditions,WindDirDegrees,DateUTC
12:51 AM,55.9,55.0,97,29.88,10.0,Calm,Calm,-,N/A,,Clear,0,2013-08-03 04:51:00
1:51 AM,55.9,54.0,93,29.86,10.0,Calm,Calm,-,N/A,,Scattered Clouds,0,2013-08-03 05:51:00
2:34 AM,55.4,53.6,94,29.85,6.0,NNE,3.5,-,N/A,,Mostly Cloudy,30,2013-08-03 06:34:00
2:40 AM,55.4,55.4,100,29.85,1.8,Calm,Calm,-,N/A,,Mostly Cloudy,0,2013-08-03 06:40:00
2:46 AM,55.4,55.4,100,29.85,1.0,Calm,Calm,-,N/A,,Mostly Cloudy,0,2013-08-03 06:46:00
2:49 AM,55.4,55.4,100,29.85,1.5,Calm,Calm,-,N/A,,Mostly Cloudy,0,2013-08-03 06:49:00
2:51 AM,55.0,55.0,100,29.85,2.5,Calm,Calm,-,N/A,,Overcast,0,2013-08-03 06:51:00
2:58 AM,55.4,55.4,100,29.85,6.0,Calm,Calm,-,N/A,,Overcast,0,2013-08-03 06:58:00
3:03 AM,55.4,55.4,100,29.85,1.8,Calm,Calm,-,0.00,Rain,Light Rain,0,2013-08-03 07:03:00
3:05 AM,55.4,55.4,100,29.85,1.0,Calm,Calm,-,0.00,Rain,Light Rain,0,2013-08-03 07:05:00
3:12 AM,55.4,55.4,100,29.85,0.2,Calm,Calm,-,0.00,Fog,Fog,0,2013-08-03 07:12:00
3:34 AM,55.4,55.4,100,29.84,0.5,Calm,Calm,-,0.00,Fog,Fog,0,2013-08-03 07:34:00
3:51 AM,55.0,55.0,100,29.83,0.5,Calm,Calm,-,0.00,Fog,Fog,0,2013-08-03 07:51:00
4:21 AM,55.4,55.4,100,29.83,1.2,Calm,Calm,-,N/A,,Mostly Cloudy,0,2013-08-03 08:21:00
4:26 AM,55.4,55.4,100,29.83,2.0,Calm,Calm,-,N/A,,Overcast,0,2013-08-03 08:26:00
4:30 AM,55.4,55.4,100,29.84,3.0,Calm,Calm,-,0.00,Rain,Light Rain,0,2013-08-03 08:30:00
4:51 AM,55.9,55.9,100,29.83,10.0,Calm,Calm,-,0.01,Rain,Light Rain,0,2013-08-03 08:51:00
5:51 AM,57.9,55.9,93,29.86,4.0,SW,4.6,-,0.09,Rain,Rain,220,2013-08-03 09:51:00
6:13 AM,55.4,55.4,100,29.86,1.8,East,5.8,-,0.03,Rain,Light Rain,90,2013-08-03 10:13:00
6:16 AM,55.4,55.4,100,29.86,1.0,East,5.8,-,0.03,Rain,Light Rain,90,2013-08-03 10:16:00
6:28 AM,55.4,55.4,100,29.84,1.5,SE,8.1,-,0.04,Rain,Rain,130,2013-08-03 10:28:00
6:31 AM,55.4,55.4,100,29.84,3.0,SSE,11.5,-,0.04,Rain,Light Rain,150,2013-08-03 10:31:00
6:51 AM,57.9,57.0,97,29.82,10.0,SSE,8.1,-,0.05,Rain,Light Rain,160,2013-08-03 10:51:00
7:51 AM,59.0,57.9,96,29.86,10.0,North,3.5,-,0.01,,Clear,10,2013-08-03 11:51:00
8:02 AM,59.0,57.2,94,29.86,10.0,Calm,Calm,-,N/A,,Partly Cloudy,0,2013-08-03 12:02:00
8:16 AM,60.8,57.2,88,29.86,10.0,Calm,Calm,-,N/A,,Mostly Cloudy,0,2013-08-03 12:16:00
8:36 AM,60.8,57.2,88,29.87,10.0,NE,3.5,-,N/A,,Scattered Clouds,40,2013-08-03 12:36:00
8:51 AM,62.1,59.0,90,29.86,10.0,Calm,Calm,-,N/A,,Mostly Cloudy,0,2013-08-03 12:51:00
9:24 AM,62.6,57.2,82,29.86,10.0,Calm,Calm,-,N/A,,Scattered Clouds,0,2013-08-03 13:24:00
9:51 AM,64.9,55.9,73,29.85,10.0,NW,5.8,-,N/A,,Clear,320,2013-08-03 13:51:00
10:51 AM,66.0,54.0,65,29.85,10.0,West,4.6,-,N/A,,Clear,260,2013-08-03 14:51:00
11:51 AM,70.0,54.0,57,29.83,10.0,WNW,11.5,-,N/A,,Partly Cloudy,300,2013-08-03 15:51:00
12:51 PM,68.0,53.1,59,29.83,10.0,WSW,9.2,-,N/A,,Overcast,250,2013-08-03 16:51:00
1:51 PM,70.0,55.0,59,29.83,10.0,West,10.4,-,N/A,,Mostly Cloudy,270,2013-08-03 17:51:00
2:51 PM,72.0,53.1,51,29.83,10.0,WNW,12.7,23.0,N/A,,Partly Cloudy,290,2013-08-03 18:51:00
3:51 PM,70.0,52.0,53,29.84,10.0,WNW,9.2,19.6,N/A,,Mostly Cloudy,290,2013-08-03 19:51:00
4:51 PM,70.0,53.1,55,29.84,10.0,WNW,9.2,18.4,N/A,,Scattered Clouds,300,2013-08-03 20:51:00
5:51 PM,68.0,52.0,56,29.85,10.0,WNW,6.9,-,N/A,,Mostly Cloudy,300,2013-08-03 21:51:00
6:51 PM,66.9,52.0,59,29.86,10.0,West,4.6,-,N/A,,Scattered Clouds,280,2013-08-03 22:51:00
7:51 PM,64.9,53.1,65,29.87,10.0,West,5.8,-,N/A,,Mostly Cloudy,280,2013-08-03 23:51:00
8:51 PM,62.1,54.0,75,29.88,10.0,WSW,3.5,-,N/A,,Overcast,250,2013-08-04 00:51:00
9:51 PM,61.0,55.0,81,29.89,10.0,Calm,Calm,-,N/A,,Overcast,0,2013-08-04 01:51:00
10:51 PM,61.0,54.0,78,29.88,10.0,Calm,Calm,-,0.00,,Overcast,0,2013-08-04 02:51:00
11:51 PM,59.0,55.0,87,29.88,10.0,WSW,5.8,-,N/A,,Clear,240,2013-08-04 03:51:00